Regional Weather Roundup
Issued by NWS

Home | Current Version | Previous Version | Graphics & Text | Print | Product List | Glossary On
Versions: 1 2 3 4 5 6 7 8 9 10 11 12 13 14 15 16 17 18 19 20 21 22 23 24 25 26 27 28 29 30 31 32 33 34 35 36 37 38 39 40 41 42 43 44 45 46 47 48 49 50
000
ASUS43 KMKX 240711
RWRWI

WISCONSIN REGIONAL WEATHER ROUNDUP
NATIONAL WEATHER SERVICE MILWAUKEE/SULLIVAN WI
200 AM CDT SUN SEP 24 2017

NOTE: "FAIR" INDICATES FEW OR NO CLOUDS BELOW 12,000 FEET WITH NO
SIGNIFICANT WEATHER AND/OR OBSTRUCTIONS TO VISIBILITY.

WIZ001-002-006>008-014>016-023>028-240800-
NORTHWEST WISCONSIN

CITY           SKY/WX    TMP DP  RH WIND       PRES   REMARKS
SUPERIOR ARPT  CLOUDY    65  64  97 CALM      29.97F
ASHLAND        CLOUDY    66  65  96 CALM      29.98S
HAYWARD        PTCLDY    72  64  76 S5        29.99S
SIREN            N/A     67  67  97 CALM      29.97S FOG
CUMBERLAND     CLEAR     70  63  78 S6        29.99S
RICE LAKE      CLEAR     68  64  88 CALM      30.01S
CHETEK           N/A     70  67  90 CALM      30.00S
LADYSMITH      PTCLDY    72  64  76 SE5       30.03S
EAU CLAIRE     PTCLDY    72  65  78 S7        29.98S
MENOMONIE      CLOUDY    69  66  88 CALM      29.99S
NEW RICHMOND   PTCLDY    71  62  72 S7        29.97S
OSCEOLA        MOCLDY    70  64  83 CALM      29.98F
$$

WIZ003>005-009-010-017-018-240800-
NORTH CENTRAL WISCONSIN

CITY           SKY/WX    TMP DP  RH WIND       PRES   REMARKS
MANITOWISH WTR NOT AVBL
ARBOR VITAE    MOCLDY    72  65  79 S6        30.06R
WOODRUFF       MOCLDY    72  65  79 S6        30.06R
RHINELANDER    CLOUDY    69  65  86 S3        30.08R
EAGLE RIVER    PTCLDY    69  62  79 CALM      30.06S
LAND O LAKES   CLOUDY    68  64  87 S3        30.09R
PHILLIPS       CLEAR     71  65  82 S7        30.04R
TOMAHAWK       CLEAR     64  62  94 CALM      30.07R
MEDFORD        PTCLDY    66  62  87 S6        30.05S
MERRILL        CLEAR     60  60 100 CALM      30.07S
$$

WIZ029-030-035-036-043>047-240800-
CENTRAL WISCONSIN

CITY           SKY/WX    TMP DP  RH WIND       PRES   REMARKS
WAUSAU         CLEAR     67  64  90 SE3       30.05R
MOSINEE        CLEAR     68  63  83 SE5       30.07S
MARSHFIELD     CLEAR     67  61  81 S3        30.05R
STEVENS POINT  CLEAR     64  64 100 CALM      30.06S
WAUPACA        CLOUDY    68  67  97 CALM      30.06S
WAUTOMA        PTCLDY    65  64  97 CALM      30.06S
WISC RAPIDS    CLEAR     72  64  76 S7        30.06S
CAMP DOUGLAS   CLEAR     62  62 100 SE6       30.04R
$$

WIZ011>013-019>022-031-037>040-048>050-240800-
NORTHEAST WISCONSIN

CITY           SKY/WX    TMP DP  RH WIND       PRES   REMARKS
ANTIGO         CLEAR     66  65  94 S6        30.09R
SHAWANO        PTCLDY    73  66  80 CALM      30.06S
OCONTO         CLEAR     66  64  93 CALM      30.05S
STURGEON BAY   CLEAR     73  65  75 S8        30.07S
GREEN BAY      CLEAR     70  67  90 S3        30.06S
MANITOWOC      CLEAR     65  63  93 CALM      30.08R FOG
APPLETON       CLEAR     70  63  78 S5        30.06R
CLINTONVILLE   PTCLDY    66  64  94 CALM      30.06S
OSHKOSH        CLEAR     67  64  90 S3        30.06S
$$

WIZ032>034-041-042-053>061-240800-
SOUTHWEST WISCONSIN

CITY           SKY/WX    TMP DP  RH WIND       PRES   REMARKS
LA CROSSE      CLEAR     72  66  81 S7        30.00R
SPARTA         CLEAR     64  62  93 NW5       30.03S
VIROQUA        CLEAR     71  64  77 SE6       30.05S
BOSCOBEL       CLEAR     67  64  90 CALM      30.03S
PRAIRIE DU CHI CLEAR     70  63  78 E6        30.02R
PLATTEVILLE    CLEAR     71  65  81 E6        30.05S
$$

WIZ056-057-062-063-064-067-068-240800-
SOUTH CENTRAL WISCONSIN

CITY           SKY/WX    TMP DP  RH WIND       PRES   REMARKS
REEDSBURG      CLEAR     64  64 100 CALM      30.05S
BARABOO/DELLS  CLEAR     71  62  72 S6        30.06S
LONE ROCK      CLEAR     65  64  97 CALM      30.04S
MINERAL POINT  CLEAR     72  64  78 SE5       30.07R
MADISON        CLEAR     74  66  76 S7        30.06R
MIDDLETON      CLEAR     72  64  76 CALM      30.07R
WATERTOWN      CLEAR     68  66  93 CALM      30.07S
MONROE         CLEAR     72  61  68 SE6       30.07S
JANESVILLE     CLEAR     70  64  83 E3        30.06S
$$

WIZ051-052-058>065-066-070>072-240800-
SOUTHEAST WISCONSIN

CITY           SKY/WX    TMP DP  RH WIND       PRES   REMARKS
MILWAUKEE      CLEAR     75  67  76 S6        30.08R
WAUKESHA       CLEAR     72  63  73 S6        30.10S
MILWAUKEE/TIMM CLEAR     68  59  73 CALM      30.09R
RACINE         CLEAR     72  69  90 CALM      30.10R
BURLINGTON     CLEAR     64  64 100 CALM      30.09R
KENOSHA        CLEAR     73  66  78 S3        30.08S
FOND DU LAC    CLEAR     68  63  84 S5        30.07S
SHEBOYGAN      CLEAR     64  64 100 CALM      30.08S
WEST BEND        N/A     64  63  94 CALM      30.09S
JUNEAU         CLEAR     69  64  84 CALM      30.09S
$$

LSZ147-162-240800-
LAKE SUPERIOR

STATION/POSITION TIME  TEMP    WIND        PRES    WAVE
                       AIR SEA DIR/SP/G            HT/PER
                 (UTC) (F)     (DEG/KT/KT) (MB)    (FT/S)
W MID LAKE BUOY  0650   60 56   30/  6/  6 1015.1S   0
DEVILS ISLAND    0700   64      50/  7/  8 1014.8R
PORT WING        0440   70      70/  4/  8 1014.6
SAXON HARBOR     0630   66     180/  1/  2 1014.6S
$$

LMZ867-665-643>646-240800-
LAKE MICHIGAN

STATION/POSITION TIME  TEMP    WIND        PRES    WAVE
                       AIR SEA DIR/SP/G            HT/PER
                 (UTC) (F)     (DEG/KT/KT) (MB)    (FT/S)
N MID LAKE BUOY  0650   69 67  180/  8/ 10 1018.4R   1/ 4
NORTHPORT PIER   0640   70     150/  6/  7 1017.3S
KEWAUNEE LAKESHO 0648   64     170/  7/  8 1017.5R
SHEBOYGAN LAKESH 0700   71     210/  5/  6 1018.1R
PORT WASHINGTON  0640   70      CALM  /  1 1019.3R
ATWATER BUOY     0639   69 65  160/  6/  6 1018.6R
MILWAUKEE LAKESH 0650   71     160/  5/  5   N/A
S MID LAKE BUOY  0650   73 70  100/  8/  8 1018.5R   0
KENOSHA   LAKESH 0700   71        CALM     1018.3
$$

TC  - TEMPERATURE IN CELSIUS
VSB - VISIBILITY IN STATUTE MILES
WCI - WIND CHILL INDEX
HX  - HEAT INDEX





USA.gov is the U.S. government's official web portal to all federal, state and local government web resources and services.